Flag for Germany Weather past 2 weeks in Ehingen (Donau), Baden-Württemberg, Germany

Now
55 °F

Fog.


Feels Like: 55 °F
Forecast: 48 / 65 °F
Wind: No wind

Location: Laupheim Airport

Current Time: Sep 2, 2015 at 9:26:02 AM

Latest Report: Sep 2, 2015 at 8:20 AM


Visibility: 2 mi

Pressure: 30.07 "Hg (28.30 "Hg at 508m altitude)

Humidity: 94%

Dew point: 54 °F

Location of Ehingen (Donau)Location

Historic Weather in Ehingen (Donau) — Graph

°F

Ehingen (Donau) temperature yesterday

Maximum temperature yesterday: 81 °F (at 12:20 PM)
Minimum temperature yesterday: 57 °F (at 11:20 PM)
Average temperature yesterday: 67 °F

Past Weeks' High & Low Weather Summary

 TemperatureHumidityPressure
High90 °F (Aug 30, 3:20 PM)100% (Aug 18, 7:20 AM)30.30 "Hg (Aug 18, 7:20 AM)
Low46 °F (Aug 26, 5:20 AM)24% (Aug 31, 5:20 PM)29.74 "Hg (Aug 24, 8:20 AM)
Average66 °F70%30.06 "Hg
* Reported Aug 18 7:20 AM — Sep 2 7:20 AM, Ehingen (Donau), Weather by CustomWeather, © 2015

Note: Actual official high and low records may vary slightly from our data, if they occured in-between our weather recording intervals... More about our weather records

Advertising

Ehingen (Donau) weather history for previous 24 hours

 ConditionsComfort  
Time TempWeatherWind HumidityBarometerVisibility
7:20 AM
Wed, Sep 2
54 °FFog.No wind94%30.07 "Hg2 mi
6:20 AM54 °FFog.No wind94%30.07 "Hg3 mi
5:20 AM55 °FPartly cloudy.1 mph94%30.07 "HgN/A
4:20 AM55 °FPassing clouds.1 mph94%30.07 "HgN/A
3:20 AM57 °FPassing clouds.No wind88%30.07 "HgN/A
2:20 AM57 °FPartly cloudy.3 mph88%30.09 "HgN/A
1:20 AM57 °FPassing clouds.2 mph94%30.07 "HgN/A
12:20 AM57 °FPartly cloudy.3 mph88%30.07 "HgN/A
11:20 PM
Tue, Sep 1
57 °FPartly cloudy.2 mph94%30.07 "Hg4 mi
10:46 PM59 °FDrizzle. Fog.6 mph94%30.07 "Hg2 mi
10:20 PM59 °FPartly cloudy.8 mph94%30.04 "Hg5 mi
9:20 PM61 °FPartly cloudy.6 mph88%30.04 "HgN/A
8:20 PM61 °FLight rain. Broken clouds.7 mph88%30.01 "HgN/A
7:20 PM63 °FLight rain. Partly sunny.5 mph83%29.98 "HgN/A
6:20 PM64 °FLight rain. Partly sunny.10 mph88%29.95 "Hg6 mi
5:20 PM64 °FLight rain. Overcast.13 mph83%29.95 "Hg5 mi
4:20 PM72 °FBroken clouds.18 mph57%29.92 "HgN/A
3:20 PM72 °FPartly sunny.9 mph57%29.92 "HgN/A
2:20 PM73 °FBroken clouds.15 mph53%29.92 "HgN/A
1:20 PM79 °FBroken clouds.18 mph45%29.89 "HgN/A
12:20 PM81 °FPartly sunny.12 mph39%29.89 "HgN/A
11:20 AM79 °FScattered clouds.7 mph45%29.86 "HgN/A
10:20 AM75 °FScattered clouds.5 mph54%29.89 "HgN/A
9:20 AM68 °FPassing clouds.3 mph64%29.86 "HgN/A
Weather by CustomWeather, © 2015

See weather overviewHow to use our weather pages